Preview of NWS' New Version of Forecast
This preview is not operational and should not be used for support decisions.

Regional Weather Roundup (RWR)

Issued by National Weather Service (NWS)

                            
000
ASUS46 KPQR 230510
RWROR 

OREGON REGIONAL WEATHER ROUNDUP
NATIONAL WEATHER SERVICE PORTLAND OR
1000 PM PDT WED MAY 22 2019

NOTE: "FAIR" INDICATES FEW OR NO CLOUDS BELOW 12,000 FEET WITH
NO SIGNIFICANT WEATHER AND/OR OBSTRUCTIONS TO VISIBILITY.

ORZ001>013-230600-
NORTHWEST OREGON

  
CITY           SKY/WX    TMP DP  RH WIND       PRES   REMARKS
ASTORIA        CLOUDY    54  51  90 NW3       30.07S                  
TILLAMOOK      CLOUDY    54  50  87 CALM      30.09S                  
NEWPORT        CLOUDY    54  52  94 N7        30.10S                  
PORTLAND       LGT RAIN  61  56  83 CALM      30.01R                  
VANCOUVER WA   LGT RAIN  61  57  87 NW5       30.01R                  
SCAPPOOSE      MOCLDY    62  51  67 NW8       30.01R                  
HILLSBORO      CLOUDY    61  52  72 W8        30.02R                  
AURORA         LGT RAIN  59  55  87 W3        30.02R                  
MCMINNVILLE    MOCLDY    55  51  86 SW7       30.02R                  
SALEM          LGT RAIN  55  52  89 W5        30.02R                  
CORVALLIS      CLOUDY    55  50  83 W10       30.04R                  
EUGENE         PTCLDY    55  49  80 W7        30.03R                  
$$

ORZ021-028-230600-
SOUTHWEST OREGON

  
CITY           SKY/WX    TMP DP  RH WIND       PRES   REMARKS
NORTH BEND     LGT RAIN  53  52  96 N13       30.10R                  
BROOKINGS      CLEAR     53  49  86 W3        29.99R                  
ROSEBURG       CLOUDY    58  48  69 NW6       30.04R                  
SEXTON SUMMIT  RAIN      45  44  97 N9G20     29.99F VSB 1/4          
GRANTS PASS    CLOUDY    57  46  67 NW12      30.02R                  
MEDFORD        CLOUDY    61  46  57 NW6       29.97R                  
$$

ORZ014>016-041-230600-
COLUMBIA GORGE

  
CITY           SKY/WX    TMP DP  RH WIND       PRES   REMARKS
TROUTDALE      CLOUDY    60  58  92 CALM      30.01R                  
HOOD RIVER     MOCLDY    55  54  94 S3        29.99S                  
THE DALLES     MOCLDY    62  51  67 NW9       29.95R                  
$$

ORZ029>031-041-044-049-050-061>064-502-503-505>511-230600-
EASTERN OREGON

  
CITY           SKY/WX    TMP DP  RH WIND       PRES   REMARKS
MADRAS         CLOUDY    50  45  81 W8        30.01S                  
REDMOND        MOCLDY    53  45  74 NW7       29.99S                  
BEND           MOCLDY    50  45  81 NW8       30.00R                  
PRINEVILLE     CLOUDY    52  41  66 NW8       29.99S                  
KLAMATH FALLS  CLOUDY    49  41  74 N9        29.97R                  
LAKEVIEW       CLOUDY    44  40  85 N14       29.93R                  
HERMISTON      CLOUDY    65  44  46 N6        29.90R                  
PENDLETON      CLOUDY    56  49  77 SE6       29.91S                  
JOHN DAY       CLOUDY    49  43  80 W6        29.96R                  
MEACHAM        CLOUDY    48  43  82 CALM      29.97R                  
LA GRANDE      CLOUDY    55  39  54 NW9       29.94R                  
BAKER CITY     CLOUDY    54  40  59 NW12      29.93R                  
BURNS          CLOUDY    49  38  65 N16       29.92R                  
ROME             N/A     47  44  90 NE7       29.89R                  
ONTARIO        LGT RAIN  53  47  79 S8        29.92F                  
$$